Theta_e
316 320 323 323 326 330 329 321 318 324 320 315 318 317 316 315 313 312 311 310 308 309 312 310 309 309 308 308 308 302 297 296 297 297 297 297 296 295 294 294 293 293 292 291 291 291 291 291 291 291 290 290 290 290 290 289 288 288 288 288 287 287 286 286 285 284 284 284 284 284 283 284 285 285 284 286 286 286 285 285 284 284 283 283 282 282
317 319 325 329 325 323 323 317 313 315 312 312 314 314 314 314 312 310 308 309 308 308 313 313 311 310 308 308 308 306 300 299 298 297 298 297 296 296 295 294 294 293 292 292 291 290 290 291 291 291 290 290 290 290 290 289 288 288 288 288 287 287 286 285 285 284 283 283 283 283 282 282 284 284 284 285 286 285 285 285 284 283 283 282 281 281
322 321 327 328 319 314 313 312 312 313 312 313 314 314 315 314 315 314 310 309 308 308 312 313 310 308 308 307 307 307 304 302 299 298 299 298 297 296 295 295 294 294 293 293 291 290 289 290 290 290 290 290 290 290 289 289 288 288 288 287 287 286 286 285 284 284 283 283 282 282 282 282 283 283 283 283 284 283 282 282 282 281 281 280 280 279
325 326 322 315 313 313 313 311 312 314 313 315 315 315 318 315 316 320 315 311 309 308 310 310 308 308 308 307 307 307 306 304 302 300 300 299 299 298 296 296 295 294 293 292 292 290 289 289 289 289 289 289 290 290 289 289 288 288 288 287 287 286 286 285 284 284 283 283 282 282 282 282 282 283 282 282 282 281 280 280 280 280 280 279 279 279
324 321 311 308 311 313 315 312 312 313 316 320 317 314 317 316 315 318 315 311 312 312 309 309 313 315 313 310 310 308 304 304 303 302 301 299 299 299 298 297 296 295 294 292 292 291 289 288 288 289 289 289 289 289 289 289 289 288 288 287 287 286 285 285 284 283 283 282 282 282 282 283 282 282 282 281 281 281 280 280 280 280 279 279 278 278
322 313 306 311 311 312 315 315 317 317 318 324 322 315 316 317 315 315 314 312 317 319 310 310 319 322 316 312 314 312 307 306 304 302 301 300 299 299 298 297 296 295 294 293 292 291 289 288 288 288 289 289 289 290 289 289 289 288 288 287 286 286 285 285 284 283 283 282 282 281 281 281 281 281 281 281 280 280 280 280 280 280 279 279 278 278
317 307 308 316 314 313 313 315 319 318 316 322 321 315 314 314 312 313 313 312 319 320 310 311 320 319 315 316 318 316 312 311 307 305 303 301 299 299 298 298 297 296 294 293 292 291 290 288 288 287 288 289 290 290 289 289 289 288 288 287 286 286 285 284 284 283 282 282 281 281 280 280 280 279 280 279 279 279 279 279 279 278 278 278 277 277
312 309 312 315 316 316 314 318 320 314 319 323 316 315 317 313 313 313 310 310 315 314 309 310 313 314 313 315 316 313 312 312 309 307 304 301 300 299 298 298 297 296 294 293 292 291 290 288 288 287 288 289 290 290 289 289 289 288 288 287 286 285 285 284 284 283 282 282 281 280 280 280 279 279 279 279 278 278 278 278 278 278 277 277 277 277
312 314 316 314 316 318 318 325 320 313 320 321 311 312 314 311 312 312 309 310 310 309 312 312 308 312 315 314 312 308 309 314 316 315 310 305 302 299 299 298 297 296 295 293 292 291 290 289 288 288 288 290 290 290 289 289 289 288 287 287 286 285 285 284 283 283 282 281 280 280 280 279 279 279 278 278 278 278 277 277 277 277 277 277 276 276
312 313 314 316 318 318 319 318 312 313 317 313 307 309 311 311 312 311 310 312 313 314 317 315 310 315 320 315 311 308 310 317 319 319 314 309 304 301 299 299 297 296 294 293 293 291 290 289 288 288 289 290 290 289 289 289 288 288 287 287 286 285 284 284 283 282 282 281 280 280 279 279 278 278 278 278 278 277 277 277 277 276 276 276 276 276
311 306 307 314 315 315 316 309 304 309 310 306 309 313 316 315 311 310 312 313 318 320 319 315 310 315 321 317 314 313 317 322 320 317 315 311 309 304 300 298 298 296 294 293 292 291 289 288 288 289 289 290 289 289 289 288 288 288 287 287 286 285 284 283 283 282 281 281 280 279 279 278 278 278 277 277 277 277 276 276 276 276 276 276 276 276
313 308 310 313 311 311 315 311 305 306 306 308 315 318 320 321 316 316 316 316 321 323 318 311 307 311 317 318 315 315 317 318 316 318 318 316 314 308 302 298 297 296 295 293 292 291 289 288 288 287 288 289 289 289 288 288 288 288 287 286 285 285 284 283 282 282 281 280 280 279 278 278 278 277 277 277 277 276 276 276 276 275 275 275 276 276
318 314 312 310 308 310 317 317 310 308 308 310 317 320 321 324 326 325 322 319 323 322 311 305 307 311 313 313 313 314 316 314 311 311 314 314 312 310 304 299 297 295 294 293 291 290 289 289 288 286 287 288 288 289 288 288 288 287 287 286 285 284 283 283 282 281 281 280 280 279 278 278 277 277 277 276 276 276 276 275 275 275 275 275 275 275
320 316 310 309 310 311 315 316 314 314 312 309 314 320 322 327 332 333 327 319 319 320 309 302 309 314 312 314 313 311 312 314 310 309 310 310 307 307 304 299 297 295 294 292 291 290 289 289 288 286 287 287 288 288 288 288 288 287 286 285 284 284 283 282 281 281 280 280 280 278 277 277 277 276 276 276 276 275 275 275 275 274 274 274 274 274
321 319 315 313 314 311 310 312 317 318 311 308 313 317 320 329 333 333 331 324 319 321 312 304 311 318 315 316 315 310 309 310 310 308 307 305 301 301 302 300 297 295 293 292 291 290 290 289 288 287 287 287 288 288 288 288 288 287 286 285 284 283 283 282 281 280 280 279 279 278 277 277 276 276 275 275 275 275 275 274 274 274 274 274 274 274
317 319 317 310 309 309 308 310 312 315 313 310 311 314 319 324 324 322 323 321 318 319 314 309 314 317 312 311 311 311 312 310 307 304 304 303 299 299 300 299 297 294 292 291 291 290 290 288 287 287 287 287 288 288 288 288 287 286 285 284 283 283 282 281 280 280 279 278 278 277 277 276 276 275 275 275 275 274 274 274 273 273 273 273 273 273
316 318 312 304 307 306 304 306 308 312 316 311 309 314 315 313 318 322 320 313 311 317 317 315 316 313 310 311 309 308 310 308 305 303 303 302 298 299 300 299 297 294 292 291 290 290 289 288 287 287 287 287 288 288 288 288 287 286 285 284 283 282 281 281 280 279 278 277 277 276 276 276 275 275 274 274 274 274 273 273 273 273 273 273 273 273
317 316 311 307 311 305 297 302 305 306 309 312 315 315 309 308 313 320 321 316 315 318 318 317 315 312 312 313 308 307 310 309 306 304 303 301 298 299 299 298 296 294 292 291 290 290 289 288 287 287 287 287 288 288 288 288 286 285 284 283 283 282 281 280 279 278 277 276 276 276 276 275 275 274 274 273 273 273 273 273 273 273 272 273 273 272
316 314 314 306 307 304 298 304 310 304 301 309 312 307 307 314 315 314 316 319 319 318 320 320 315 311 312 313 311 312 313 312 311 308 305 303 299 298 298 297 295 293 292 291 290 290 289 288 287 286 286 287 288 288 288 287 285 284 284 283 282 281 280 279 278 277 277 276 275 275 275 275 274 274 273 273 273 272 272 272 272 272 272 272 272 272
315 314 317 306 301 304 304 307 314 309 301 302 304 302 306 313 315 314 314 317 320 318 317 318 315 312 314 318 319 317 314 314 314 314 312 307 300 297 297 297 295 293 292 291 290 289 289 288 286 286 286 287 288 288 287 286 285 284 283 282 281 280 279 278 277 277 276 275 275 275 275 274 274 273 273 272 272 272 272 272 272 272 272 272 272 272
315 313 315 309 301 305 309 309 312 312 306 304 306 306 305 305 309 314 311 312 318 318 317 319 317 313 314 319 322 318 317 316 314 316 316 310 302 297 296 296 295 293 291 291 290 289 289 287 286 286 287 287 287 287 286 285 284 283 282 281 281 279 278 277 277 276 275 275 274 274 274 273 273 272 272 272 272 271 272 272 272 271 271 271 271 272
317 315 315 314 309 309 311 307 306 309 309 307 309 310 307 305 309 314 312 310 312 314 319 320 317 313 313 317 319 317 319 319 316 316 315 309 303 298 295 295 295 293 291 291 289 289 289 287 286 285 285 286 286 286 285 284 284 283 282 281 280 278 278 277 276 275 274 274 274 274 273 273 272 272 272 271 271 271 271 271 271 271 271 271 271 271
319 318 315 316 315 310 305 302 301 305 306 307 308 309 308 307 310 314 314 312 311 312 314 315 315 314 313 318 321 318 319 317 314 314 311 306 303 299 295 293 293 292 291 290 289 289 288 287 285 284 284 284 285 285 284 284 283 282 281 280 279 278 277 276 275 274 274 274 274 273 273 272 272 271 271 271 271 271 271 271 270 270 270 271 271 271
316 318 315 314 316 312 304 301 302 303 304 307 309 307 307 308 309 311 312 313 315 314 312 313 314 312 313 319 318 313 310 307 305 305 303 303 302 297 294 293 292 292 291 290 289 289 288 286 285 284 284 283 284 284 284 283 282 281 280 279 278 277 276 275 274 274 274 273 273 273 272 272 271 270 270 270 270 270 270 270 270 270 270 270 270 270
314 318 317 314 316 316 310 307 308 306 305 308 310 308 306 307 308 309 310 310 313 313 312 313 314 311 314 315 309 305 304 305 305 302 298 301 302 297 295 293 291 291 290 290 289 288 287 287 285 284 283 283 283 283 283 283 282 280 279 278 277 276 275 274 274 273 273 272 272 272 272 271 270 270 270 270 269 269 269 269 269 269 269 269 268 268
315 319 317 313 313 313 311 312 315 313 307 306 309 308 306 306 307 308 310 310 311 311 311 312 313 311 312 311 307 306 307 306 305 301 296 296 297 296 294 292 291 290 290 289 288 288 287 287 286 285 283 283 282 282 282 282 281 280 278 277 276 275 274 274 273 273 272 272 272 271 271 270 270 269 269 269 269 269 269 269 269 268 268 267 267 267
319 320 315 313 313 311 309 310 312 313 311 309 310 309 306 306 306 307 310 310 310 310 310 311 311 311 311 311 310 310 309 308 307 305 301 298 296 295 293 292 291 290 289 289 288 287 287 286 286 285 283 282 282 282 282 281 280 279 277 276 275 274 274 273 273 272 272 272 271 270 270 269 269 268 268 268 268 268 268 267 267 267 266 266 266 266
320 318 312 313 313 311 311 311 311 313 314 312 311 309 307 307 306 307 309 310 309 310 311 310 310 311 311 310 310 310 310 309 309 309 307 302 299 296 293 292 291 290 289 289 288 287 287 286 286 284 283 282 281 281 281 280 279 278 276 275 274 273 273 272 272 272 271 271 270 269 269 268 268 268 268 268 268 267 267 266 266 265 265 265 265 266
316 314 312 314 313 311 311 311 313 314 312 310 311 310 308 306 306 307 307 308 309 310 311 310 310 311 310 309 310 309 309 309 309 309 308 304 300 296 293 292 291 290 289 288 288 287 287 286 285 284 283 281 280 280 279 279 278 276 275 274 273 273 272 271 271 271 270 269 268 268 268 267 267 267 267 267 266 266 266 265 265 265 265 265 265 265
313 313 312 313 313 313 312 311 312 312 310 310 310 310 308 306 306 307 306 307 307 308 309 310 310 310 309 309 310 309 309 309 309 309 308 305 302 298 295 293 292 290 289 288 288 287 287 286 285 284 282 281 280 279 278 277 276 275 274 273 272 272 271 271 271 270 269 268 268 267 267 266 266 266 266 266 266 265 265 264 264 264 264 264 265 265
310 313 315 314 313 314 313 311 313 312 311 311 310 310 310 308 307 307 306 306 306 307 307 307 308 309 308 308 309 308 308 308 308 308 307 307 305 301 297 294 292 290 289 288 288 287 287 286 284 283 283 281 279 278 277 276 275 274 273 272 272 271 271 270 270 269 268 267 267 266 266 266 266 266 266 266 265 265 264 264 264 264 264 264 265 265
308 313 316 315 314 314 313 313 314 312 311 311 311 311 311 310 309 309 308 307 307 307 307 307 308 308 307 308 308 308 308 307 308 308 307 307 306 302 298 296 293 291 289 288 288 287 286 285 284 283 282 280 278 277 276 275 274 273 272 271 271 271 270 270 270 269 267 267 266 266 265 265 265 265 266 266 265 264 264 263 263 264 264 264 265 265
308 311 313 313 314 313 313 314 313 312 312 312 312 311 311 311 311 310 310 310 308 308 308 309 309 309 308 309 309 308 309 308 308 308 307 308 306 301 298 296 294 292 290 289 288 287 286 285 284 282 281 279 277 277 276 275 273 272 271 271 270 270 270 270 269 267 266 266 266 265 264 264 264 265 265 265 264 264 263 263 263 263 264 264 265 266
308 309 311 312 313 313 311 311 312 312 314 315 314 314 313 311 311 311 310 310 309 309 309 309 309 309 309 310 309 309 309 308 309 309 308 308 307 302 298 295 294 292 290 289 288 287 285 284 283 281 279 278 276 276 275 274 273 271 271 271 270 270 270 269 268 266 266 265 265 264 264 264 264 265 264 264 263 263 263 263 263 263 264 265 265 265
308 308 310 311 312 311 309 310 313 314 315 314 315 317 315 312 312 311 310 310 309 309 309 309 309 309 309 309 309 309 309 308 308 307 306 306 305 303 299 296 293 292 290 289 287 286 285 283 281 279 277 276 275 274 273 272 271 271 271 270 270 269 269 268 266 266 265 265 264 264 264 264 264 264 264 263 263 262 262 263 263 263 264 264 265 265
309 308 309 311 312 310 308 311 314 314 313 311 312 313 311 309 310 311 311 310 309 309 309 309 309 308 309 309 308 308 308 308 306 304 303 303 301 301 300 297 294 291 290 289 287 286 284 282 280 278 275 274 274 272 271 271 271 270 270 269 269 269 268 267 265 265 265 264 265 265 265 265 264 263 263 262 262 262 262 262 263 263 264 264 264 264
307 309 309 310 312 312 311 311 312 312 313 312 311 310 310 310 310 311 312 311 309 309 309 308 308 308 309 308 308 308 307 305 305 305 304 303 299 298 298 297 294 291 290 288 286 285 283 280 278 276 274 273 272 271 271 270 270 269 269 268 268 268 267 265 264 265 265 265 266 266 266 265 263 262 262 262 262 262 262 262 262 263 263 264 264 264
306 309 310 310 312 312 312 312 312 313 313 312 310 311 312 312 310 310 311 311 310 310 310 309 309 308 308 308 308 306 305 305 306 306 305 304 299 295 294 294 292 291 289 287 284 281 279 278 276 274 273 272 270 270 270 270 269 269 268 267 266 266 265 264 264 264 265 266 267 267 267 265 263 262 261 261 262 262 262 262 262 263 263 263 263 263
305 307 308 310 311 312 313 313 313 314 313 312 311 311 311 311 309 309 311 312 310 310 310 310 309 309 309 309 307 305 305 306 307 305 305 305 299 293 292 291 290 288 286 283 281 279 276 275 274 272 271 270 268 269 269 269 269 268 266 266 265 264 264 264 264 264 265 267 268 268 267 265 263 262 261 261 262 261 261 262 262 262 263 263 263 263
305 305 306 308 310 311 312 313 313 313 313 313 311 307 306 308 310 311 313 313 312 312 312 309 309 309 309 308 305 304 306 307 307 305 302 300 295 290 290 289 287 285 282 280 278 276 274 273 272 270 269 268 267 268 268 268 268 267 266 265 264 263 263 264 264 265 266 268 269 269 268 265 263 262 262 262 262 262 262 262 262 262 262 262 263 263
305 305 306 307 309 311 312 313 313 313 313 312 309 305 304 308 310 311 313 313 312 315 314 310 309 309 308 306 304 304 304 304 304 301 295 292 291 288 287 285 283 281 279 277 275 273 272 271 271 269 268 268 267 267 267 267 266 265 265 264 263 263 264 265 265 266 267 269 269 269 268 266 263 262 262 262 261 261 261 262 262 262 262 262 263 263
307 307 307 307 309 309 311 313 312 312 313 311 307 304 305 309 311 311 313 313 312 314 315 313 310 308 307 305 303 302 302 301 299 296 291 289 288 286 283 281 280 278 276 274 273 271 270 270 269 268 267 267 267 267 267 267 266 265 264 263 263 264 265 265 265 267 268 269 269 269 268 266 264 263 262 262 261 261 261 261 261 262 262 262 263 264
310 309 308 308 310 309 310 312 312 313 315 310 305 304 304 308 311 311 311 313 313 314 314 313 310 308 307 305 302 300 300 298 295 292 289 287 285 283 281 280 279 276 274 273 272 270 270 269 268 267 266 265 265 266 266 267 266 265 263 263 264 265 265 265 266 267 268 269 269 269 268 267 266 264 262 261 261 261 261 261 261 261 262 263 263 264
312 312 311 310 311 311 311 311 311 312 311 307 306 307 306 306 309 310 311 312 311 312 312 312 310 308 307 307 305 300 299 297 294 290 288 285 283 281 279 278 277 275 273 272 271 270 269 268 267 266 265 264 264 265 265 267 267 265 263 263 265 265 265 266 267 267 268 268 268 268 268 268 267 264 262 261 261 261 261 261 261 261 262 263 264 265
313 313 313 312 312 312 312 312 311 311 308 305 306 309 308 306 307 309 310 311 311 310 310 310 310 307 304 304 305 302 299 297 293 290 287 285 282 280 278 277 276 274 273 271 270 269 269 268 266 265 264 263 263 264 265 266 267 265 263 264 265 265 265 266 267 267 268 268 267 266 267 268 268 265 262 261 260 260 260 261 261 261 262 263 265 265
313 313 313 313 312 311 311 311 310 311 308 305 305 308 309 308 308 307 307 308 308 308 307 307 307 306 302 301 303 301 298 295 291 289 286 284 281 279 277 276 275 273 272 270 269 269 268 267 265 264 263 262 262 263 264 265 265 265 264 265 265 265 266 267 267 267 268 267 266 265 265 266 267 265 263 261 260 260 260 260 260 261 262 264 265 265
314 313 313 313 313 313 313 311 310 310 308 305 305 306 307 308 308 307 306 305 305 306 306 305 305 305 302 300 301 301 297 293 291 289 285 283 280 278 277 276 274 273 272 270 269 268 267 266 264 264 263 262 261 262 264 264 264 264 265 265 265 265 266 267 267 267 267 266 265 264 263 263 263 262 262 262 260 259 260 261 261 261 262 264 264 265
314 313 312 312 312 313 313 312 311 311 310 307 306 305 306 306 305 304 304 304 303 304 304 303 303 303 302 299 299 299 296 292 290 289 285 282 280 278 277 276 274 273 271 270 268 267 266 265 265 264 263 263 262 262 263 263 263 264 265 265 264 265 266 267 267 266 266 265 264 263 263 261 260 259 260 261 260 260 259 259 261 262 263 263 264 266
314 314 313 312 312 312 312 312 312 312 311 310 308 306 306 306 305 304 303 302 302 303 303 302 301 301 300 298 297 298 296 292 290 288 285 282 280 279 277 275 274 272 271 269 267 266 266 265 264 264 263 263 262 261 262 262 263 264 264 264 264 265 266 266 266 266 265 264 263 263 262 260 259 258 258 259 260 261 262 261 261 262 263 264 265 266
315 313 313 313 313 313 313 312 312 312 312 311 310 309 308 307 306 305 304 303 302 301 302 301 299 298 298 297 297 297 297 293 289 287 286 283 281 279 277 275 273 272 270 268 266 266 266 265 264 264 263 262 261 261 261 261 262 263 264 264 264 265 266 266 266 265 264 263 263 263 262 260 259 258 258 258 258 260 263 264 264 263 262 263 265 266
314 313 313 314 314 313 313 312 312 312 312 312 311 311 310 308 307 306 306 305 303 301 301 301 299 298 297 296 296 297 297 294 289 287 285 283 281 279 276 274 273 271 269 267 266 266 265 264 264 263 263 261 260 260 260 261 263 264 264 264 264 265 266 266 266 265 264 263 262 262 260 259 258 258 258 258 258 257 259 262 265 265 264 263 263 265
Wind_Speed
3 1 3 5 6 7 7 7 6 5 6 5 4 4 5 5 7 6 4 5 1 1 9 10 9 12 16 17 10 8 11 13 13 12 12 11 11 12 13 13 14 14 12 13 20 25 26 27 25 24 23 20 18 17 14 11 7 4 2 1 2 3 4 6 7 8 10 11 12 13 14 17 19 18 19 21 22 22 23 24 25 27 28 28 29 30
4 2 7 8 9 7 5 6 6 5 5 3 3 3 5 5 7 8 3 5 2 3 7 7 7 12 14 16 11 7 10 14 15 16 16 15 13 12 14 16 16 12 8 10 17 22 26 27 26 25 24 22 21 19 16 12 8 4 1 1 2 3 4 5 6 8 9 10 11 12 13 16 18 18 18 20 21 22 22 24 25 26 26 27 28 29
2 5 10 8 6 5 5 5 7 5 4 3 2 1 4 4 5 8 3 5 2 3 6 7 8 13 13 16 16 10 12 14 14 18 18 16 15 14 15 16 15 12 10 11 14 19 25 27 27 26 26 24 22 19 17 13 9 5 2 1 2 3 4 5 6 7 9 10 11 12 14 15 17 17 17 19 21 20 21 23 24 24 25 26 27 28
2 7 8 5 7 8 5 3 7 4 2 3 3 2 5 4 1 5 4 4 3 2 5 8 11 13 10 14 16 10 11 12 11 15 15 13 15 16 16 16 16 17 16 14 14 16 21 25 26 27 27 25 22 19 17 14 10 7 3 2 2 3 4 5 6 8 9 11 12 13 15 16 16 17 17 18 20 19 20 23 23 24 25 26 27 27
7 6 2 5 6 7 5 3 6 4 3 3 5 6 6 6 5 6 4 5 5 3 3 7 10 10 5 8 11 4 4 9 9 10 12 12 13 13 13 14 16 17 16 16 16 15 18 23 25 27 28 26 24 21 17 14 11 8 5 3 3 4 5 5 6 8 10 12 13 15 18 19 19 20 20 21 22 23 23 25 25 25 26 27 28 28
8 5 5 6 3 4 6 4 5 7 3 4 5 9 9 8 7 5 4 5 4 4 3 6 6 8 1 3 8 5 3 8 6 9 12 12 11 11 13 15 14 14 13 14 16 15 18 22 24 27 28 27 25 21 17 14 12 9 6 4 4 5 5 6 7 8 11 12 14 16 18 19 19 20 21 21 23 26 27 27 28 28 28 29 29 29
3 0 4 6 5 5 6 5 6 7 5 3 4 7 7 5 3 2 3 3 1 3 3 3 1 8 3 3 7 9 6 9 8 9 12 11 10 12 14 14 13 13 13 13 14 15 17 21 23 24 27 28 25 20 16 15 13 10 7 5 5 6 6 7 8 9 11 13 14 15 16 16 16 17 19 20 22 25 26 27 28 28 28 28 29 29
3 3 4 4 6 5 5 5 6 9 7 4 4 5 6 5 4 3 2 0 3 3 3 2 4 7 8 5 7 7 7 12 13 12 12 10 12 14 15 15 13 14 14 13 14 15 17 22 25 25 28 29 25 20 18 16 14 11 8 6 6 6 7 8 9 10 12 13 14 15 15 17 17 17 20 22 23 24 25 27 28 29 29 29 29 29
3 5 5 6 5 4 6 5 8 11 5 5 5 6 6 6 5 4 4 2 2 3 5 4 5 4 9 5 3 4 4 10 14 14 13 11 13 15 15 15 14 14 14 14 15 15 17 23 27 28 30 30 25 21 19 17 14 12 9 7 7 6 7 8 9 11 12 13 14 15 15 17 18 19 21 23 25 26 25 27 29 29 30 31 30 31
1 4 7 8 5 6 5 2 5 9 4 3 6 6 5 5 4 4 3 2 2 2 8 7 8 4 8 5 3 1 3 9 11 11 11 9 10 13 14 13 13 12 12 14 15 15 18 25 29 29 30 29 25 21 19 17 15 13 10 8 8 7 7 8 10 11 13 13 14 15 16 18 19 20 22 24 26 27 27 28 30 30 31 33 34 34
2 1 2 4 4 5 4 3 1 3 3 5 6 5 5 5 4 4 2 3 3 5 9 7 13 8 6 4 6 4 5 8 8 8 8 8 8 10 11 11 12 12 11 12 12 13 17 24 28 29 29 29 26 22 20 19 17 14 11 9 9 7 6 8 10 12 13 14 14 16 17 18 20 21 23 24 27 28 28 29 31 32 33 35 37 37
4 1 2 2 2 5 6 5 3 3 4 5 4 4 3 4 3 4 4 4 0 6 6 3 8 9 8 7 5 6 8 7 8 7 8 10 9 8 9 9 11 12 11 11 11 11 13 17 22 25 26 27 26 24 23 21 18 15 11 9 9 7 6 8 10 12 13 14 15 16 17 19 20 21 22 24 26 28 28 29 31 33 34 36 38 39
3 4 3 1 2 4 6 4 3 4 4 4 4 4 2 3 4 3 3 1 3 7 3 1 3 5 11 11 8 10 12 10 10 9 10 12 11 8 8 9 9 9 10 10 11 11 12 13 17 21 24 26 27 26 25 22 19 16 12 9 9 7 7 9 11 12 13 14 16 17 18 19 20 21 22 24 26 27 28 29 31 33 35 38 40 40
4 4 1 2 3 3 8 6 2 2 2 5 5 4 4 2 1 3 4 2 5 6 2 3 3 3 9 8 12 18 17 15 12 9 10 11 11 9 7 8 8 8 10 10 10 12 12 13 16 21 24 25 26 27 25 22 19 16 11 8 8 8 7 9 11 12 13 15 16 17 18 19 19 21 22 24 26 28 28 29 31 33 35 37 40 42
4 7 3 6 2 4 9 6 4 5 4 4 5 5 5 5 4 4 4 4 7 6 3 2 2 4 5 4 8 14 14 14 11 7 7 9 8 7 6 6 8 9 9 9 10 12 13 14 18 22 24 26 27 27 24 21 19 15 10 8 7 7 7 9 11 12 13 15 16 17 18 19 19 21 22 24 25 27 28 30 31 34 35 37 40 43
4 8 5 2 0 5 6 2 4 7 3 2 3 4 3 5 5 3 3 4 1 5 4 3 4 6 4 4 6 6 8 11 9 6 8 11 8 4 6 7 8 8 9 9 11 12 13 15 19 22 24 25 26 25 24 21 19 15 9 7 7 7 8 9 11 12 13 15 16 17 18 19 20 21 23 25 26 27 28 30 33 35 37 38 40 42
2 6 3 2 2 2 3 1 1 2 3 2 3 4 5 4 5 2 2 1 4 3 6 2 6 9 5 5 7 6 8 11 8 7 11 12 7 4 7 9 8 8 9 10 11 12 12 14 18 22 24 25 25 24 23 21 18 13 8 7 7 7 8 9 10 11 13 14 16 17 18 19 20 21 23 25 27 28 29 31 33 35 37 39 40 41
3 4 2 2 1 1 0 1 1 1 3 5 3 5 3 2 4 3 1 3 3 3 6 3 8 14 9 7 2 4 7 12 10 11 13 10 6 6 10 10 9 8 8 9 10 10 11 13 17 21 24 26 27 25 23 21 16 11 8 7 7 7 8 8 10 11 12 14 16 17 18 20 21 22 23 25 27 29 30 33 34 35 37 39 40 41
3 3 4 2 2 2 2 1 0 2 2 4 4 3 3 3 2 2 2 3 2 3 6 8 10 14 11 8 4 4 9 11 10 11 12 10 9 9 11 11 8 7 7 9 10 10 10 12 17 21 23 25 26 24 22 20 15 10 8 7 7 7 8 9 10 11 13 14 16 17 19 20 21 22 24 25 27 28 30 33 35 36 37 38 39 39
3 3 5 1 2 1 2 2 5 3 1 2 1 2 2 2 4 3 3 3 3 3 6 8 10 14 10 7 6 9 11 10 10 10 11 12 11 11 11 10 8 8 9 10 10 11 11 12 17 22 24 25 25 23 22 19 14 10 8 7 7 8 8 9 10 11 13 14 16 18 19 20 22 23 24 25 27 28 31 32 34 35 37 37 37 37
3 3 5 1 2 1 3 5 8 9 7 4 3 2 2 1 2 1 2 2 4 4 4 3 8 17 8 7 8 10 9 11 11 10 11 10 10 11 11 10 9 9 10 10 10 11 11 12 16 21 24 25 24 23 22 18 13 10 9 8 8 8 8 9 10 11 13 14 16 18 19 21 22 23 25 26 26 28 31 32 33 34 35 36 36 35
3 3 5 3 2 4 5 2 2 5 6 7 7 7 7 5 4 1 5 3 3 4 5 4 8 19 8 6 6 7 7 10 10 11 12 8 9 11 11 11 10 10 11 11 10 10 10 11 15 19 21 22 23 23 21 17 13 11 10 9 8 8 8 9 10 11 13 14 16 18 20 21 23 23 24 25 27 29 30 31 32 33 33 34 34 34
4 3 3 5 6 5 3 1 1 2 2 3 5 4 6 6 6 6 8 5 2 2 2 4 5 19 10 6 6 7 7 9 9 10 10 7 8 11 10 10 10 9 10 9 9 9 9 10 14 18 19 21 22 23 21 17 14 12 10 8 8 8 8 9 10 11 12 14 16 18 20 22 22 23 24 25 27 28 29 30 31 30 30 31 33 33
2 2 4 7 5 2 3 2 1 3 3 2 5 4 6 7 8 8 6 3 2 3 3 4 5 19 10 5 5 5 3 5 6 7 7 7 7 8 9 10 9 9 8 8 8 8 8 9 13 14 16 19 21 22 20 17 14 12 10 8 8 8 8 9 10 11 13 15 17 19 20 21 22 22 23 25 26 27 28 29 29 28 29 31 33 33
4 3 3 5 6 5 4 2 2 2 1 4 5 5 8 11 9 3 1 1 3 6 9 5 11 19 9 3 4 0 2 6 7 6 7 7 7 7 8 8 8 8 8 8 9 9 9 10 11 11 14 18 20 20 20 17 14 12 10 9 8 8 9 9 10 11 13 15 18 19 20 21 21 23 25 25 25 26 28 28 27 28 30 31 31 32
6 5 5 7 9 10 10 6 3 3 3 3 4 6 11 15 13 7 3 4 7 8 11 10 18 19 15 12 6 2 5 9 9 8 7 7 8 7 7 7 7 8 9 10 11 11 11 11 10 11 14 18 19 20 19 17 14 12 10 9 8 8 8 8 10 12 14 16 18 19 20 21 23 25 26 25 26 28 29 30 28 28 29 29 31 33
3 3 8 13 14 14 15 11 5 6 5 5 9 13 15 16 15 12 7 7 10 8 8 17 23 17 22 29 20 12 13 14 14 12 8 7 9 8 8 8 8 8 8 9 9 10 11 11 11 12 14 17 19 20 19 17 14 12 10 8 8 7 7 8 10 12 14 16 17 19 21 23 24 25 25 25 27 29 30 32 31 29 29 30 31 32
2 6 14 18 18 18 19 15 7 9 7 10 12 16 17 15 15 13 12 16 16 9 11 21 22 18 26 33 26 21 19 18 19 18 10 8 10 9 8 7 7 8 8 8 10 12 13 13 12 11 12 16 19 19 18 16 13 11 9 8 7 5 6 8 10 12 14 16 17 19 22 23 23 24 23 24 27 29 30 33 33 32 30 29 30 31
3 10 15 15 17 20 22 17 9 9 10 9 11 17 16 14 16 17 21 27 21 12 16 24 23 23 28 28 25 23 21 18 19 18 9 7 8 7 7 8 9 10 10 11 13 14 14 14 13 12 12 15 18 18 17 16 13 11 9 7 5 4 5 8 10 12 14 15 17 19 21 22 22 21 23 25 28 31 32 33 34 34 32 30 30 31
3 8 13 14 15 18 22 18 9 9 11 10 13 20 15 12 17 22 27 28 20 16 24 29 26 27 28 26 24 23 20 16 16 16 12 9 9 8 9 10 11 11 12 14 15 14 14 14 13 12 12 14 17 17 17 16 14 12 9 6 4 4 5 7 10 12 13 14 17 19 19 20 20 21 24 26 29 31 32 33 35 34 34 35 35 34
5 8 10 9 10 16 21 16 10 12 14 13 19 26 18 12 18 26 26 19 13 18 27 27 24 26 27 25 21 19 19 17 17 19 18 15 12 9 10 12 12 12 13 15 14 14 13 12 12 13 12 14 17 18 18 16 14 12 9 5 3 3 5 7 9 10 12 14 16 17 18 19 20 22 25 27 28 30 31 32 33 33 34 36 37 37
6 5 2 2 6 15 16 9 8 9 6 10 21 30 24 18 20 24 19 14 15 20 22 19 18 23 24 19 16 17 19 18 20 22 19 14 10 10 12 13 13 13 14 14 14 14 14 14 15 15 13 15 17 19 19 17 15 11 9 5 2 3 4 6 8 10 12 14 15 16 16 17 19 22 25 27 28 30 31 32 32 33 35 36 36 36
5 4 2 4 8 13 8 3 7 6 1 9 20 25 24 22 22 20 18 18 20 19 15 15 20 24 19 12 14 20 21 18 19 19 15 11 10 11 13 14 13 14 15 15 15 16 16 16 14 14 15 17 19 20 20 18 15 12 9 5 2 2 3 5 7 9 11 13 14 15 16 17 20 23 25 27 28 29 30 31 32 32 34 35 34 32
5 7 6 5 7 10 4 6 7 4 9 13 9 9 15 19 21 20 21 24 23 19 17 18 24 26 18 13 18 22 20 20 21 15 8 8 9 10 12 13 13 13 13 13 14 15 15 13 11 14 18 20 21 21 20 17 14 12 8 5 3 1 2 5 7 9 11 12 13 14 16 18 21 24 25 27 28 29 30 31 32 32 31 31 30 29
8 9 7 4 5 4 3 5 3 9 14 9 3 2 10 13 15 18 20 24 26 24 22 22 26 29 23 19 21 21 21 23 21 12 6 9 10 9 10 12 13 12 12 12 14 14 14 13 13 15 19 22 23 22 20 17 14 11 8 5 3 1 2 4 6 8 10 12 14 15 18 20 22 24 26 27 28 29 30 30 31 31 29 28 27 28
9 7 5 4 4 1 2 7 11 12 10 10 12 10 7 4 4 9 15 21 23 23 20 18 24 29 25 20 21 20 18 16 15 11 8 10 11 10 12 13 12 13 14 14 15 16 16 17 18 20 23 25 25 22 20 17 14 11 8 6 4 2 2 3 6 8 10 12 14 17 20 22 23 24 25 28 28 29 30 31 30 29 28 28 28 28
10 8 6 6 7 5 7 10 11 12 12 15 21 17 6 5 6 7 10 18 24 22 16 15 23 27 22 20 21 15 7 6 11 13 10 11 12 13 13 12 11 13 13 12 13 16 18 21 24 27 29 27 24 22 20 17 14 12 10 7 5 3 1 2 5 8 11 14 16 18 20 22 23 24 25 27 28 29 30 30 29 29 29 30 30 30
14 11 9 9 9 8 10 10 10 11 13 18 23 17 3 7 11 9 7 16 25 18 12 16 22 23 19 19 15 5 2 2 10 14 10 8 11 11 10 8 7 8 9 10 13 16 20 25 29 30 30 27 23 21 19 16 14 13 11 8 6 3 1 2 5 8 11 14 16 18 20 21 22 23 24 25 27 28 30 29 29 29 29 29 30 32
14 9 9 10 9 9 11 11 11 12 12 14 18 10 1 6 8 7 3 16 21 11 13 17 20 19 18 16 8 6 4 4 10 12 7 6 8 8 8 6 5 7 10 15 19 23 27 31 32 30 29 26 22 20 19 16 15 14 11 9 7 4 1 2 5 8 11 13 16 17 19 20 21 22 23 25 26 27 28 29 29 30 29 29 29 32
8 7 8 10 11 12 13 12 10 8 9 12 10 3 5 8 11 8 7 17 12 8 15 17 17 16 16 10 5 7 7 8 9 8 3 4 5 5 6 7 9 10 11 15 22 30 35 36 33 28 25 24 22 20 19 17 15 14 12 9 7 4 2 2 5 7 10 13 14 16 18 18 20 21 22 24 26 27 27 27 28 30 30 30 29 30
5 6 8 10 14 14 14 14 11 6 8 13 7 7 8 6 8 5 17 16 5 6 10 13 14 14 12 8 7 7 10 10 6 1 3 6 6 6 6 7 9 12 15 20 28 35 36 34 32 28 25 24 24 22 20 18 16 14 12 9 7 4 2 2 5 7 10 12 13 15 17 18 19 21 22 23 25 27 28 27 27 29 30 31 30 29
5 4 6 9 11 11 12 13 9 6 12 13 8 10 8 4 5 14 15 5 2 5 7 9 12 11 8 9 10 10 8 4 2 4 5 6 7 8 8 8 9 11 16 22 29 35 35 30 27 25 23 23 24 23 20 19 17 15 12 9 7 4 1 2 5 8 10 11 13 14 16 18 19 21 22 23 24 26 28 27 25 27 28 28 28 28
9 6 5 8 8 7 8 8 6 8 13 12 12 6 5 9 16 20 11 3 4 7 8 7 9 9 9 10 11 10 6 3 3 5 5 6 8 8 7 8 8 9 13 17 21 30 34 27 20 20 22 22 23 22 21 19 17 15 12 9 7 4 2 2 5 8 10 11 13 14 15 18 19 20 21 23 24 25 28 27 26 26 26 26 27 26
9 7 7 8 8 7 7 9 11 12 10 15 18 12 15 20 22 19 11 8 10 7 7 6 8 9 10 11 11 10 9 6 6 7 8 7 9 10 9 9 10 12 14 15 19 29 33 25 17 18 20 21 22 21 20 18 17 16 13 9 7 5 2 3 6 8 9 11 12 14 15 17 19 21 21 22 23 24 26 26 26 26 25 25 25 24
13 16 15 10 9 11 11 11 13 11 8 14 18 18 21 25 25 19 11 9 10 7 6 7 8 9 11 11 10 10 10 9 9 9 10 10 10 11 12 11 12 14 16 17 22 29 30 26 22 21 19 19 21 21 19 17 16 15 13 10 7 5 3 5 7 8 9 11 12 14 15 16 18 20 22 22 22 23 24 26 26 25 24 24 23 25
16 20 16 9 8 10 12 12 11 9 7 13 18 20 20 20 18 15 13 12 12 9 7 7 9 9 11 10 9 9 10 10 11 10 10 11 10 12 13 11 11 13 14 16 20 26 29 28 25 22 19 17 19 20 18 16 15 14 13 10 8 6 4 5 7 8 9 11 12 14 15 16 18 20 22 22 21 21 22 24 25 24 24 22 22 26
11 13 12 10 10 9 11 14 18 18 15 15 18 19 19 17 13 11 12 15 15 13 9 8 9 9 10 11 12 12 11 11 12 10 10 11 11 13 14 12 10 11 11 14 22 29 31 27 20 17 17 17 18 18 19 17 15 14 12 10 8 6 5 6 7 8 9 10 12 14 15 17 18 20 23 24 23 21 20 22 24 23 23 23 25 28
9 11 11 11 13 14 15 18 20 20 17 16 16 15 16 19 17 14 13 12 11 10 8 8 8 9 10 12 13 12 11 12 13 12 11 11 11 13 12 10 11 12 12 18 27 33 30 21 15 15 16 17 18 20 19 18 16 14 12 10 8 7 6 6 7 8 9 10 12 13 14 15 16 18 21 24 25 24 21 21 22 22 22 23 26 29
7 10 11 11 14 17 17 17 16 14 11 12 18 21 21 22 19 16 14 12 9 8 8 9 9 9 10 12 12 11 11 12 13 14 14 12 12 12 10 9 10 10 13 21 30 33 30 24 19 19 19 19 21 22 21 19 17 14 12 10 8 7 6 6 7 8 9 10 11 12 14 15 15 16 17 20 23 25 23 20 19 20 22 23 24 25
6 9 10 10 12 14 15 17 18 15 12 14 21 27 25 20 15 14 14 14 13 13 13 12 10 8 9 11 12 13 13 12 13 15 15 14 14 13 10 10 9 6 11 23 29 30 32 32 29 26 24 22 23 24 22 20 18 15 13 10 9 7 6 6 7 8 9 10 11 12 13 14 16 16 16 17 18 22 24 23 20 18 19 22 23 23
11 14 13 12 15 17 19 21 20 17 16 18 22 23 18 14 14 17 17 18 19 18 16 14 13 11 11 11 12 15 16 15 15 16 15 14 15 13 10 11 12 10 15 24 26 23 25 28 29 29 26 24 25 26 24 21 18 16 13 11 9 7 6 6 7 8 9 10 10 11 12 13 15 16 16 16 16 16 19 23 25 23 21 21 23 24
Wind_Direction
85 146 227 217 222 225 217 193 184 177 148 141 151 192 231 241 271 257 233 287 356 235 266 251 245 257 265 269 249 198 202 220 226 228 229 217 211 213 214 218 217 219 218 202 202 201 195 192 189 187 186 186 187 189 192 191 189 183 157 80 33 6 355 350 347 345 344 346 346 342 340 342 348 352 351 354 354 352 350 348 346 344 343 342 340 338
68 200 232 225 218 211 201 170 134 126 120 105 165 227 270 230 258 270 258 315 324 179 265 272 263 257 256 267 262 182 195 223 217 221 228 216 213 215 215 220 219 218 208 196 206 204 199 196 191 188 187 187 187 189 194 195 194 190 188 359 11 355 349 343 335 334 338 342 342 337 335 338 345 350 348 349 349 346 344 343 342 341 339 337 335 334
3 241 240 227 190 110 88 125 116 119 124 101 144 193 282 245 271 291 315 351 347 176 269 287 279 265 255 262 262 211 202 228 217 217 224 214 211 215 216 219 217 214 205 199 207 204 202 199 194 191 189 190 192 191 194 197 198 195 211 307 347 343 334 328 321 326 333 338 341 337 336 339 343 346 344 344 347 344 338 337 337 336 335 332 330 328
247 254 249 197 142 111 88 107 108 100 124 144 151 167 261 265 289 285 309 342 304 218 270 288 281 268 251 254 261 234 214 237 228 223 228 217 215 217 216 217 212 210 207 202 204 202 201 200 198 196 192 192 192 191 194 199 201 202 213 278 313 322 318 315 316 324 331 337 340 338 340 343 343 342 340 341 344 339 331 331 331 331 330 328 324 322
237 241 175 115 127 138 139 147 141 155 256 244 198 195 238 257 233 236 286 329 316 304 313 315 297 279 237 237 261 269 240 258 243 231 238 226 223 226 222 223 217 212 208 203 203 200 198 200 201 200 195 192 192 192 196 201 204 208 216 260 293 302 305 310 318 325 332 339 340 341 344 346 346 343 341 341 339 334 329 328 328 328 327 325 322 320
259 230 138 124 127 143 155 190 190 176 218 292 231 207 223 243 244 261 325 349 347 326 341 11 325 289 233 205 266 285 260 261 242 226 239 230 221 225 227 227 219 215 212 206 206 200 197 199 200 201 198 194 193 195 198 202 207 211 220 254 285 294 305 314 322 327 334 340 342 345 346 346 344 338 335 335 331 327 326 325 325 325 325 323 319 318
262 70 105 143 152 148 169 224 230 169 145 291 247 199 205 211 219 266 346 8 302 261 299 53 311 273 276 152 252 269 265 269 258 234 239 233 219 220 227 227 216 212 210 208 207 200 198 198 197 201 200 195 194 196 196 202 209 214 225 253 281 295 309 318 325 329 335 342 344 345 344 341 335 324 321 325 322 319 319 319 320 319 319 318 316 315
160 101 70 112 123 141 181 234 224 157 133 240 223 135 134 138 161 188 118 103 241 271 299 180 163 273 279 218 237 271 286 282 275 259 247 232 222 223 227 226 216 211 207 205 205 200 198 198 197 199 197 196 196 194 194 201 209 214 226 252 281 297 310 319 326 331 336 342 342 340 338 336 331 320 318 321 319 316 316 316 316 315 314 314 314 314
131 158 177 144 121 175 204 224 191 158 153 237 190 123 114 126 146 147 125 199 269 3 296 220 150 269 273 241 262 322 290 270 271 268 259 235 222 226 229 226 218 214 208 205 205 201 198 198 199 197 194 196 195 192 195 202 208 214 226 253 278 294 309 321 327 332 337 341 338 335 334 332 327 321 320 321 317 316 317 314 313 313 312 314 314 314
91 195 190 149 155 209 212 232 181 166 188 197 137 104 72 78 83 88 114 140 49 334 268 220 164 235 272 221 176 40 239 247 258 265 266 251 227 223 228 225 218 215 210 208 207 202 201 200 198 195 194 195 193 191 197 201 205 214 226 253 277 292 310 322 328 332 336 338 334 332 334 328 322 321 323 321 318 317 317 314 312 313 313 315 316 317
337 316 179 151 183 190 140 84 99 131 144 129 106 69 37 41 50 51 65 74 54 277 271 223 179 196 278 241 183 193 209 213 226 251 270 269 248 228 225 221 213 212 209 207 206 201 200 199 196 194 193 192 189 191 196 199 206 214 227 254 277 293 313 322 328 331 332 334 332 333 334 325 320 323 324 319 316 316 315 311 311 312 313 315 316 316
341 343 225 230 162 127 97 76 42 47 90 104 86 62 19 340 13 19 357 43 70 256 278 251 183 189 244 248 212 232 242 217 204 231 258 265 261 237 220 218 212 210 207 201 199 197 192 193 194 193 191 187 186 190 195 199 206 213 226 255 277 294 315 322 326 328 329 331 333 335 331 322 321 324 320 314 311 311 310 309 310 312 313 315 315 314
300 229 234 268 171 137 111 84 19 1 50 96 94 84 53 328 354 344 313 67 227 249 257 163 166 216 246 245 231 242 254 241 217 218 243 261 265 248 221 219 215 205 202 196 193 193 190 191 193 190 187 183 184 190 195 199 204 211 225 252 276 293 315 322 323 326 327 330 334 333 326 320 323 322 316 311 308 307 308 308 310 312 313 313 313 312
291 289 153 169 257 175 154 161 204 251 153 149 148 135 143 127 48 278 275 282 270 271 256 161 155 256 272 258 225 225 234 236 231 225 235 253 262 255 233 218 215 207 201 196 193 194 195 195 192 188 184 182 184 190 195 198 201 209 224 249 272 291 314 319 320 323 325 330 332 327 321 320 322 319 314 309 306 306 307 307 308 309 310 309 309 308
248 286 214 178 238 183 180 193 165 142 148 173 157 139 159 158 165 221 232 248 275 291 268 208 191 228 261 274 220 218 232 239 244 250 252 259 261 256 247 222 215 212 201 196 196 197 200 196 190 187 184 184 186 190 193 196 198 206 224 246 266 289 309 315 317 321 323 327 326 320 317 320 319 316 311 307 305 305 306 308 308 307 306 306 305 306
219 266 249 195 281 166 183 214 107 113 133 200 129 120 185 186 169 203 213 195 258 320 278 212 223 226 224 278 248 226 245 243 243 260 264 264 257 237 242 233 220 214 201 196 198 200 200 194 190 187 184 186 187 188 191 193 196 204 221 242 262 286 302 310 314 317 320 321 317 315 317 319 318 314 310 307 305 306 307 308 307 306 306 305 304 305
210 273 290 32 343 148 170 216 108 135 180 167 141 178 215 184 134 143 268 31 66 303 270 220 254 273 299 284 246 201 233 245 244 251 252 255 250 221 235 234 221 214 202 199 201 199 194 189 191 190 185 185 185 186 189 191 194 203 218 237 256 280 294 304 310 312 316 314 310 313 317 319 317 313 309 307 307 309 309 308 306 305 306 305 304 304
196 268 294 105 224 281 183 168 42 24 132 132 183 212 190 123 92 107 247 341 39 259 274 279 267 277 283 279 286 127 217 246 247 244 250 254 239 225 240 238 223 214 203 203 203 197 192 189 192 190 185 184 184 186 189 189 191 200 216 234 253 274 289 301 306 307 310 307 306 312 317 318 316 313 310 309 309 311 310 308 308 306 305 305 304 304
149 251 290 103 197 282 23 95 172 344 86 130 206 225 118 140 169 114 158 238 241 237 273 283 282 276 255 243 268 207 211 231 240 242 250 249 231 229 241 239 223 208 201 203 201 195 193 191 190 188 183 183 184 185 186 184 187 198 213 229 250 271 286 297 302 305 306 304 306 313 317 318 316 313 311 311 311 311 309 308 309 307 305 304 304 303
116 202 262 253 226 257 51 174 191 199 92 78 293 318 27 158 177 165 158 179 183 204 265 290 297 279 245 186 217 228 208 211 223 233 243 239 228 225 234 235 218 205 205 203 201 198 194 192 191 186 180 178 181 182 182 182 187 197 209 225 245 265 279 291 299 302 302 304 312 317 318 318 316 313 313 313 313 312 310 309 308 306 304 303 303 303
98 196 235 281 330 235 189 211 198 185 172 156 190 219 245 169 114 213 224 142 141 184 240 277 281 275 260 146 197 221 201 205 209 221 240 234 224 226 228 228 215 207 210 204 199 198 191 187 187 183 179 177 178 178 178 183 190 196 209 225 242 261 276 289 297 296 297 307 316 318 319 318 316 315 315 315 314 311 311 310 308 306 305 304 304 304
147 188 213 193 244 219 209 244 210 184 170 175 195 196 194 172 120 208 249 216 155 190 208 173 259 273 270 133 195 212 195 212 204 218 241 229 216 227 227 224 216 208 210 205 198 193 186 183 182 177 174 172 172 173 177 184 191 198 211 225 242 261 276 287 290 292 301 314 320 320 321 318 316 317 316 315 314 312 311 310 309 308 307 305 305 305
125 125 222 232 232 223 235 335 156 170 132 195 218 191 179 165 151 196 231 224 173 209 206 105 267 271 263 137 173 194 198 225 213 217 240 227 216 228 228 225 220 212 211 201 192 188 182 179 174 169 168 167 169 173 178 186 193 201 212 225 242 261 275 283 287 298 312 321 323 323 321 319 319 320 317 315 313 312 312 311 311 310 307 306 307 306
106 134 221 254 275 333 356 1 71 69 69 232 237 178 170 196 197 207 219 183 157 203 170 95 256 262 267 106 150 204 224 257 244 220 225 226 228 232 230 227 218 212 207 191 185 183 172 169 168 167 168 168 170 175 180 187 194 201 213 226 243 260 274 283 294 311 322 325 325 323 320 321 321 319 318 316 313 312 313 314 313 312 309 307 308 308
186 175 179 247 284 307 310 340 4 341 199 221 234 182 194 219 216 214 63 138 230 198 153 148 248 253 266 77 114 163 293 269 262 235 217 229 237 231 231 229 215 205 194 183 182 176 169 173 174 173 171 170 172 176 180 187 193 200 212 226 244 260 275 291 308 321 327 327 324 322 321 321 321 322 324 321 316 315 317 316 313 312 313 311 308 309
183 179 176 212 237 246 250 244 222 224 198 213 232 200 208 216 208 212 223 199 228 201 156 199 244 256 276 276 249 238 263 260 261 247 228 237 243 236 232 224 210 203 196 189 184 177 177 180 178 175 171 171 173 176 180 186 191 200 213 225 243 263 281 305 321 325 327 327 325 325 325 324 325 329 328 322 319 319 320 320 316 312 314 313 311 311
157 189 204 218 226 233 246 246 186 133 150 202 217 214 215 213 206 215 235 221 223 217 199 229 245 264 277 271 266 263 262 267 272 265 250 241 241 235 231 222 210 204 199 190 182 177 179 181 181 177 170 170 173 176 181 186 190 199 212 225 243 267 294 318 325 323 326 329 330 330 330 329 331 331 327 321 321 321 321 323 322 317 315 315 314 313
125 225 223 225 231 237 249 249 184 145 196 210 210 220 220 212 204 206 227 234 226 221 236 243 246 256 262 264 269 271 267 271 276 275 262 239 238 231 223 218 206 202 196 187 186 185 185 185 182 176 168 169 172 174 179 184 190 199 212 226 247 274 306 321 324 325 330 333 330 328 329 331 331 328 323 319 320 321 323 325 326 323 319 316 314 312
174 235 232 228 237 242 250 249 189 170 230 226 216 230 222 205 206 208 225 234 226 219 245 250 246 248 254 261 266 267 267 267 273 278 269 233 235 227 215 211 205 203 194 191 195 193 189 188 180 173 170 169 170 171 173 179 187 198 211 226 250 286 313 320 326 332 334 331 326 325 327 328 327 323 320 320 324 327 328 328 328 326 322 318 313 310
186 241 239 235 246 248 249 247 201 191 241 248 244 245 226 190 207 219 228 234 229 229 245 253 255 257 259 260 261 266 272 274 277 283 280 259 244 223 212 215 212 206 199 199 202 196 191 188 177 171 170 169 170 169 169 176 185 195 208 223 246 297 320 322 329 334 331 325 323 325 327 325 322 322 323 326 329 330 331 330 330 327 324 322 318 314
213 234 236 232 248 252 250 245 208 205 232 244 254 256 240 199 217 233 236 234 231 238 246 254 263 264 261 260 264 271 276 278 279 276 274 270 257 227 218 223 216 207 205 204 201 193 188 182 175 175 175 172 171 167 168 175 183 192 203 214 242 301 324 324 330 333 325 321 322 324 325 322 320 324 328 331 333 333 332 331 330 327 325 323 321 318
211 229 244 171 231 251 254 237 194 198 225 246 253 255 245 223 228 241 242 228 220 233 247 256 259 258 260 267 275 272 267 268 269 268 269 268 249 221 220 225 216 210 209 203 196 190 184 181 181 181 175 168 166 165 169 174 177 187 196 196 228 299 318 325 333 330 321 321 323 322 321 319 323 329 334 336 336 334 334 332 330 328 326 324 323 320
191 212 209 179 228 252 255 155 145 140 155 252 248 245 241 236 237 244 251 242 227 225 236 245 248 253 262 277 275 270 268 265 261 262 263 259 242 222 221 223 217 212 207 198 193 188 185 186 184 176 167 163 164 167 171 174 175 180 184 180 195 280 320 335 336 326 319 321 322 319 321 324 331 337 339 339 338 335 335 333 331 330 328 325 323 318
196 218 218 201 234 250 219 117 110 151 225 245 243 216 224 235 236 236 244 245 238 229 226 236 252 262 267 266 262 266 270 267 266 265 248 230 232 226 223 224 219 214 206 197 193 189 185 181 171 163 161 160 161 164 167 172 173 171 170 166 170 193 352 346 334 322 319 322 323 323 329 335 340 343 341 340 339 336 335 334 331 330 328 323 320 317
199 214 220 213 237 246 143 123 173 223 229 247 328 166 206 223 227 227 238 245 243 240 234 236 251 260 260 257 258 263 265 268 274 277 233 216 227 222 222 226 218 207 201 192 187 184 176 169 162 157 154 153 156 159 162 166 167 162 159 156 152 126 15 344 326 322 321 322 327 333 339 344 346 345 343 342 340 337 335 334 331 329 327 322 318 315
205 204 210 211 216 210 144 197 230 252 271 300 300 266 222 194 201 224 246 253 249 244 236 233 246 254 256 256 257 258 264 276 287 279 234 219 223 214 217 226 213 201 199 192 186 182 173 169 163 153 148 150 153 156 160 163 161 155 154 152 144 108 37 338 319 322 324 329 337 342 347 350 348 346 344 342 340 337 335 333 330 327 324 320 315 314
208 204 211 221 216 220 233 229 245 281 295 283 270 259 229 156 168 200 248 262 260 251 228 220 242 251 252 253 255 259 278 315 298 277 248 222 219 216 221 224 207 197 197 185 173 165 159 157 152 146 146 148 151 156 159 159 157 152 151 149 138 112 73 315 313 325 333 340 347 350 352 353 349 346 344 342 338 335 333 330 327 325 323 320 316 315
214 210 212 225 221 222 242 248 251 260 258 254 257 261 235 163 184 185 215 260 267 256 199 202 236 246 247 250 251 250 56 318 276 274 262 224 215 214 220 221 199 184 172 148 139 137 141 146 145 145 148 146 147 155 158 155 154 151 147 143 139 133 155 293 315 332 343 348 353 355 355 354 351 347 343 340 337 333 330 327 324 323 322 319 315 315
223 224 221 233 234 228 236 244 243 242 246 255 262 268 122 146 157 130 187 261 265 239 173 197 229 236 241 246 224 135 122 233 258 267 256 209 199 201 200 183 141 135 136 139 142 142 142 143 141 142 145 142 144 155 157 153 153 150 146 144 141 148 203 299 327 340 351 355 357 358 357 355 353 349 343 340 337 332 328 326 323 323 322 319 317 315
217 228 227 230 234 233 234 241 247 246 253 264 267 238 154 148 119 104 259 264 256 181 174 199 218 225 232 229 166 147 183 216 244 264 245 157 157 166 163 148 137 137 132 133 138 140 140 140 138 139 142 143 148 154 154 153 152 150 148 144 143 164 211 311 342 352 359 3 3 0 359 358 355 351 347 342 338 332 328 325 324 324 323 322 320 318
196 214 216 221 231 232 231 241 250 249 253 258 238 164 163 133 104 193 249 254 228 164 178 190 204 220 219 182 157 190 212 215 227 262 102 121 120 113 117 119 124 130 130 133 138 139 139 140 139 140 143 147 151 153 154 155 153 148 145 144 158 182 197 344 355 6 9 9 8 3 1 1 357 354 351 346 339 332 328 327 326 326 325 324 323 322
182 193 203 214 228 230 230 242 255 260 251 241 190 151 160 157 211 235 239 244 207 200 184 181 198 210 197 179 190 210 215 207 155 120 129 139 133 128 126 118 109 112 123 132 139 140 138 136 136 137 141 148 153 154 156 157 152 146 144 153 174 179 125 15 8 19 18 14 11 5 3 3 360 358 354 348 341 333 328 329 330 328 328 327 325 324
180 180 201 203 209 218 230 234 238 253 241 197 148 138 192 206 231 241 243 282 257 202 173 190 204 190 178 191 208 215 205 164 141 153 158 151 142 140 140 133 125 126 130 136 145 145 140 134 132 135 140 150 155 155 158 158 149 143 151 166 174 161 105 37 28 28 24 19 15 8 6 4 1 360 355 348 342 334 329 331 332 332 334 332 328 327
168 179 213 207 193 198 214 211 214 235 221 160 154 188 212 212 230 242 238 249 252 212 171 204 212 189 185 195 203 208 198 178 175 171 163 162 155 147 148 144 136 139 143 145 151 149 141 133 129 132 139 151 157 157 160 158 147 146 161 171 161 147 114 54 45 35 28 25 20 12 9 6 2 360 355 348 342 335 331 333 335 336 338 336 332 331
187 200 218 218 200 202 214 217 217 225 199 170 187 213 216 219 233 241 235 246 253 225 183 204 215 198 193 195 194 198 197 188 186 177 168 169 163 152 155 154 147 149 150 146 148 150 144 138 136 135 139 152 160 159 159 156 152 155 167 167 149 138 111 66 51 41 35 30 24 17 12 7 3 359 353 347 343 337 334 335 336 338 339 338 337 335
208 213 224 228 214 219 235 241 237 231 196 191 213 227 226 226 233 236 236 243 246 232 198 203 216 200 189 191 190 196 202 189 178 177 172 166 160 155 156 153 149 152 147 141 147 150 145 140 139 137 137 150 160 159 154 155 161 165 164 159 148 132 102 73 57 46 42 34 27 23 16 10 5 359 351 347 344 340 338 339 339 338 338 338 337 334
221 220 225 226 217 220 234 234 231 231 219 208 219 232 238 239 233 220 223 230 236 234 214 207 214 195 183 191 194 197 200 182 171 176 171 162 162 163 160 155 152 154 150 148 152 151 147 143 141 139 141 149 159 160 155 158 168 168 161 156 146 127 101 79 63 51 46 39 31 26 21 14 5 353 348 346 343 340 341 345 345 341 338 338 336 332
208 209 214 220 221 226 233 232 231 235 230 221 227 236 241 242 233 222 224 232 236 235 217 202 203 191 186 197 200 196 190 179 175 174 169 167 171 168 164 160 154 151 150 151 152 152 151 147 143 145 147 149 157 162 162 165 168 165 159 155 142 124 104 84 70 57 50 43 34 28 23 15 1 348 343 345 344 341 340 344 347 344 340 339 337 334
171 192 196 203 221 233 241 243 244 252 251 239 237 236 236 238 235 227 230 237 236 231 220 208 205 200 195 197 194 186 183 185 183 175 170 172 173 168 163 161 154 147 148 154 157 159 158 154 149 148 147 148 158 166 169 169 167 163 159 153 141 126 108 89 77 65 57 48 37 30 22 10 358 347 341 343 347 349 350 351 348 341 339 344 344 341
159 203 197 200 224 233 234 232 234 239 242 239 239 237 235 236 237 231 230 231 228 223 220 215 212 210 208 201 190 181 184 190 185 176 173 176 175 170 158 149 147 138 144 154 159 162 161 159 155 150 146 151 162 169 171 169 165 162 159 153 141 129 113 96 84 72 63 53 40 31 20 4 353 346 343 342 344 348 356 4 5 356 345 343 345 347
203 213 204 210 228 230 227 226 226 230 236 240 245 246 238 224 223 227 226 226 226 222 217 211 207 207 211 209 196 189 190 188 179 174 177 179 175 168 154 149 156 156 152 155 157 158 158 159 156 150 148 157 168 171 170 168 164 161 159 153 142 132 118 101 91 77 66 57 45 33 18 359 348 344 345 346 344 343 348 357 5 10 5 353 348 350